FW6868 Weather Reports


Display with metric or nautical units.
time (UTC)temp
F
wind
direction
speed
MPH
gust
MPH
rain 1hr
in
rain 24hr
in
rain mn
in
humidity
%
barometer
mb
20220525194608 62 0 0.0 0.0 0.00 0.00 0.00 71 1021.6
20220525193101 62 0 0.0 2.0 0.00 0.00 0.00 71 1021.3
20220525191604 62 267 1.0 3.0 0.00 0.00 0.00 71 1021.1
20220525190106 63 267 1.0 4.0 0.00 0.00 0.00 71 1021.0
20220525184604 63 0 0.0 4.0 0.00 0.00 0.00 73 1020.9
20220525183106 63 5 1.0 4.0 0.00 0.00 0.00 74 1020.9
20220525181608 63 352 2.0 5.0 0.00 0.00 0.00 74 1021.0
20220525180100 63 22 3.0 6.0 0.00 0.00 0.00 74 1020.8
20220525174559 63 0 0.0 5.0 0.00 0.01 0.00 74 1020.8
20220525173106 63 22 2.0 8.0 0.00 0.01 0.00 75 1020.6
20220525171559 63 31 4.0 10.0 0.00 0.01 0.00 74 1020.6
20220525170100 63 30 6.0 11.0 0.00 0.01 0.00 73 1020.5
20220525164556 63 38 7.0 13.0 0.00 0.12 0.00 72 1020.4
20220525163107 63 29 9.0 14.0 0.00 0.12 0.00 72 1020.3
20220525161606 64 16 7.0 11.0 0.00 0.12 0.00 72 1020.2
20220525160106 65 5 4.0 10.0 0.00 0.12 0.00 72 1020.0
20220525154609 64 336 4.0 10.0 0.00 0.12 0.00 73 1019.8
20220525153106 65 343 5.0 9.0 0.00 0.12 0.00 72 1019.8
20220525151605 64 17 7.0 14.0 0.00 0.12 0.00 73 1019.5
20220525150114 64 360 8.0 12.0 0.00 0.12 0.00 73 1019.8
20220525144600 65 348 6.0 13.0 0.00 0.12 0.00 70 1019.7
20220525143112 65 360 8.0 13.0 0.00 0.12 0.00 69 1019.6
20220525141559 65 321 7.0 12.0 0.00 0.12 0.00 71 1019.8
20220525140058 64 342 9.0 14.0 0.00 0.12 0.00 71 1019.5
20220525134603 64 24 8.0 12.0 0.00 0.12 0.00 70 1019.5
20220525133055 64 47 9.0 13.0 0.00 0.12 0.00 71 1019.5
20220525131602 63 38 7.0 14.0 0.00 0.12 0.00 70 1019.4
20220525130105 63 35 10.0 17.0 0.00 0.12 0.00 69 1019.2
20220525124606 63 46 10.0 14.0 0.00 0.12 0.00 66 1019.3
20220525123107 63 42 11.0 16.0 0.00 0.12 0.00 65 1019.1
20220525121618 62 43 15.0 18.0 0.00 0.12 0.00 64 1019.1
20220525120109 62 46 14.0 17.0 0.00 0.12 0.00 65 1019.1
20220525114602 63 48 13.0 16.0 0.00 0.12 0.00 63 1018.8
20220525113108 63 38 12.0 16.0 0.00 0.12 0.00 58 1018.7
20220525111610 63 31 10.0 14.0 0.00 0.12 0.00 59 1018.7
20220525110113 62 31 12.0 16.0 0.00 0.12 0.00 59 1018.6
20220525104610 64 22 9.0 12.0 0.00 0.12 0.00 58 1018.6
20220525103109 66 26 2.0 11.0 0.00 0.12 0.00 58 1018.4
20220525101607 65 22 6.0 11.0 0.00 0.12 0.00 57 1018.3
20220525100101 65 9 7.0 13.0 0.00 0.12 0.00 58 1018.3
20220525094602 64 15 8.0 12.0 0.00 0.12 0.00 63 1018.2
20220525093106 65 27 5.0 10.0 0.00 0.12 0.00 60 1018.2
20220525091603 65 21 6.0 9.0 0.00 0.12 0.00 59 1018.0
20220525090109 64 5 7.0 13.0 0.00 0.12 0.00 59 1017.9
20220525084603 64 337 8.0 14.0 0.00 0.12 0.00 59 1017.8
20220525083059 63 330 10.0 14.0 0.00 0.12 0.00 57 1017.7
20220525081559 63 338 7.0 12.0 0.00 0.12 0.00 58 1017.3
20220525080102 63 304 5.0 13.0 0.00 0.12 0.00 57 1017.2
20220525074605 62 306 4.0 11.0 0.00 0.12 0.00 56 1017.1
20220525073103 61 332 6.0 12.0 0.00 0.12 0.00 58 1016.7
20220525071559 61 299 4.0 11.0 0.00 0.12 0.00 61 1016.6
20220525070106 60 271 3.0 15.0 0.00 0.12 0.00 65 1016.5
20220525064556 59 294 6.0 12.0 0.00 0.12 0.00 68 1016.2
20220525063108 59 287 6.0 14.0 0.00 0.12 0.00 71 1016.1
20220525061559 58 279 6.0 11.0 0.00 0.12 0.00 72 1016.1
20220525060122 57 292 4.0 10.0 0.00 0.12 0.00 73 1015.8
20220525054602 56 288 3.0 7.0 0.00 0.12 0.00 75 1015.5
20220525053107 55 284 3.0 9.0 0.00 0.12 0.00 76 1015.2
20220525051559 55 275 3.0 8.0 0.00 0.12 0.00 78 1015.0
20220525050109 54 283 2.0 6.0 0.00 0.12 0.00 79 1014.8
20220525044600 54 295 2.0 6.0 0.00 0.12 0.00 80 1014.7
20220525043104 54 290 2.0 6.0 0.00 0.12 0.00 81 1014.6
20220525041605 54 235 2.0 4.0 0.00 0.12 0.00 82 1014.4
20220525040104 54 276 1.0 3.0 0.00 0.12 0.00 83 1014.3
20220525034611 54 280 2.0 4.0 0.00 0.12 0.00 83 1014.2
20220525033102 54 296 2.0 5.0 0.00 0.12 0.00 83 1014.1
20220525031604 54 289 1.0 3.0 0.00 0.12 0.00 84 1014.1
20220525030117 55 264 1.0 3.0 0.00 0.12 0.00 83 1014.0
20220525024610 55 258 2.0 4.0 0.00 0.12 0.00 83 1013.9
20220525023111 55 272 1.0 4.0 0.00 0.12 0.00 82 1014.1
20220525021610 56 278 2.0 4.0 0.00 0.12 0.00 81 1013.9
20220525020112 57 286 1.0 4.0 0.00 0.12 0.00 80 1013.9
20220525014611 58 333 4.0 12.0 0.00 0.12 0.00 79 1013.9
20220525013115 59 355 6.0 12.0 0.00 0.12 0.00 81 1013.7
20220525011608 58 303 4.0 12.0 0.00 0.12 0.00 81 1013.8
20220525010106 58 310 3.0 13.0 0.00 0.12 0.00 82 1013.9
20220525004606 59 347 8.0 13.0 0.00 0.12 0.00 83 1013.8
20220525003105 60 355 9.0 14.0 0.00 0.12 0.00 84 1013.7
20220525001614 60 336 9.0 17.0 0.00 0.12 0.00 84 1013.9
20220525000103 60 22 11.0 19.0 0.00 0.12 0.00 84 1013.8
20220524234604 60 5 13.0 19.0 0.00 0.12 0.00 85 1013.9
20220524233106 60 355 12.0 17.0 0.00 0.12 0.00 85 1013.7
20220524231609 60 355 14.0 23.0 0.00 0.12 0.00 86 1013.7
20220524230104 60 355 14.0 21.0 0.00 0.12 0.00 87 1013.7
20220524224601 61 57 17.0 22.0 0.00 0.12 0.00 87 1013.2
20220524223101 61 5 16.0 24.0 0.00 0.12 0.00 87 1013.1
20220524221600 62 347 18.0 28.0 0.00 0.12 0.00 87 1012.9
20220524220105 61 12 18.0 31.0 0.00 0.12 0.00 84 1012.6
20220524214558 63 360 18.0 35.0 0.00 0.12 0.12 82 1012.4
20220524213110 63 346 21.0 32.0 0.00 0.12 0.12 81 1012.3
20220524211600 64 14 23.0 37.0 0.00 0.12 0.12 87 1011.8
20220524210111 64 24 22.0 35.0 0.00 0.12 0.12 88 1011.3
20220524204609 64 350 14.0 25.0 0.00 0.12 0.12 88 1011.7
20220524203105 65 34 24.0 32.0 0.00 0.12 0.12 88 1010.4
20220524201603 65 49 25.0 31.0 0.00 0.12 0.12 88 1009.8
20220524200107 65 38 25.0 33.0 0.00 0.12 0.12 87 1009.6